RH
102 105 95 84 87 100 102 99 101 101 100 101 100 102 100 98 101 101 101 101 101 102 101 101 102 102 101 99 100 103 95 85 89 101 100 91 90 94 92 84 81 87 89 86 88 88 89 99 102 95 86 78 86 98 88 67 44 33 40 33 31 58 77 82 91 98 99 100 101 93 86 98 96 72 70 85 86 77 66 70 85 86 78 74 72 71 69
103 102 91 85 94 102 100 100 101 100 101 101 100 101 98 98 102 101 101 101 100 101 99 98 102 100 95 93 95 103 98 82 82 97 99 88 87 90 85 76 75 81 82 84 93 92 89 99 101 93 83 72 84 103 99 85 61 40 45 50 50 58 64 69 82 94 100 100 101 100 86 86 91 76 72 91 98 94 88 83 81 78 69 66 74 83 84
103 100 89 88 98 102 100 100 101 101 103 101 98 100 99 99 100 98 100 102 101 101 101 100 100 96 90 88 88 94 94 81 80 95 99 90 87 88 85 77 72 74 76 81 93 96 93 95 88 80 76 66 75 98 103 96 79 57 53 64 71 71 64 65 67 70 87 98 97 102 93 77 80 82 79 88 97 100 98 84 71 66 60 62 78 90 89
103 97 90 93 100 102 100 101 102 102 102 99 98 101 101 100 99 94 97 101 100 100 100 98 96 90 84 80 76 77 77 71 76 88 87 80 82 86 89 87 77 72 74 73 77 87 93 93 85 79 75 64 66 87 100 101 92 75 68 74 83 85 78 72 62 52 71 96 98 99 97 82 80 90 89 83 82 85 83 71 60 55 55 64 75 76 71
103 96 92 97 101 102 102 102 103 103 98 95 99 101 100 102 99 91 91 92 91 90 89 86 83 79 75 71 66 64 61 57 62 68 62 58 63 69 81 93 85 70 72 71 64 67 78 89 96 93 80 62 59 73 88 100 102 89 81 83 88 93 90 83 73 58 60 86 101 100 98 91 83 85 91 86 77 70 66 64 64 62 64 70 66 57 54
101 97 96 100 102 102 102 101 102 101 94 93 99 100 100 101 94 86 83 79 75 76 75 72 70 68 65 63 61 58 54 50 50 52 50 48 49 51 62 86 86 65 61 68 63 56 59 73 89 94 82 66 62 71 80 90 101 99 92 91 92 94 94 90 86 76 63 72 92 98 99 99 89 80 79 82 84 80 72 68 71 75 80 79 70 63 60
100 99 99 101 102 102 101 101 102 98 93 95 100 99 100 101 90 76 68 61 57 60 61 59 56 55 54 52 50 48 46 47 46 45 42 35 33 36 40 56 67 55 46 54 59 56 52 54 65 75 78 74 70 78 88 91 97 100 98 98 97 96 95 90 89 89 79 73 82 93 98 100 97 89 80 77 81 84 81 76 72 74 78 75 71 70 67
100 101 100 101 102 101 100 102 101 96 94 98 101 99 100 102 92 72 56 48 46 48 50 45 39 38 41 42 41 39 39 46 47 42 34 22 17 21 22 26 37 39 35 39 45 46 43 40 41 46 55 63 61 68 87 96 98 101 101 100 98 99 99 89 82 87 87 79 79 88 96 97 98 98 92 85 83 82 82 81 75 73 73 70 69 69 68
101 101 100 101 101 101 101 103 101 95 94 99 101 100 99 103 98 76 53 45 46 46 44 40 39 42 44 49 53 48 42 48 52 48 43 32 19 14 13 15 21 23 22 23 24 26 27 27 28 28 31 36 38 44 62 77 82 87 96 102 99 97 96 88 83 87 91 89 86 87 91 91 90 93 95 95 94 91 89 89 85 81 77 70 69 71 73
101 100 101 101 100 100 101 103 100 91 92 98 101 100 100 102 95 74 61 66 70 68 66 67 75 78 71 68 68 58 46 47 52 55 55 48 34 23 15 13 15 18 18 19 19 20 20 20 20 20 18 18 19 23 30 40 45 49 63 84 96 98 94 90 92 96 97 99 97 93 94 94 86 81 81 88 97 99 96 89 83 82 81 76 75 78 80
101 100 101 100 100 101 100 103 98 88 91 100 100 99 100 98 85 67 73 95 98 88 85 89 99 99 86 75 68 58 50 48 47 49 49 45 42 41 35 23 15 15 17 18 21 21 21 21 20 19 17 13 11 11 13 16 22 27 38 57 77 92 95 95 100 102 98 98 99 97 98 96 88 83 77 75 81 86 87 86 85 85 85 82 81 82 84
100 100 101 100 101 101 100 102 97 87 91 100 100 100 99 99 91 73 72 93 104 99 93 90 92 89 75 65 58 50 48 46 41 39 41 44 51 56 55 43 28 21 18 17 19 20 18 19 20 19 18 15 13 13 12 11 13 20 31 43 57 71 79 82 89 94 94 94 96 99 98 90 86 91 90 82 77 74 73 80 90 96 96 92 88 86 85
100 100 101 100 101 101 100 102 96 89 94 101 100 100 99 99 99 85 71 75 88 94 89 77 72 69 62 54 45 36 32 32 29 27 31 45 55 57 56 55 47 39 32 25 23 23 21 21 22 21 18 14 13 14 14 14 13 14 20 31 40 49 57 63 71 77 83 87 90 96 100 96 94 97 95 90 86 79 71 72 80 88 91 90 90 91 90
99 101 100 99 101 100 100 101 95 90 98 102 99 100 100 99 100 94 82 73 69 66 62 54 49 51 53 48 37 28 25 26 27 27 28 36 44 45 47 51 49 42 34 28 26 27 27 25 24 26 24 17 12 11 12 13 14 13 15 21 28 33 39 48 57 66 74 84 90 92 93 96 100 101 96 92 90 86 80 77 77 77 77 79 81 82 83
100 101 99 100 101 100 101 100 94 93 100 102 99 100 101 101 99 92 82 73 62 51 46 43 40 41 42 39 34 31 28 28 32 33 29 26 25 25 26 28 27 24 21 21 23 25 28 27 27 31 34 30 23 17 13 12 13 17 24 31 35 37 38 41 48 56 65 76 83 83 80 80 83 87 88 88 88 85 82 79 76 72 72 73 74 72 72
101 100 100 101 100 100 102 100 95 97 100 100 100 100 98 99 97 86 74 67 60 51 43 36 33 35 39 39 41 42 34 27 28 26 21 18 15 13 13 14 13 13 13 15 16 18 20 22 22 25 30 34 31 24 18 16 15 21 30 36 36 34 34 37 40 42 47 54 61 63 62 62 63 65 67 69 71 73 74 72 69 68 68 69 71 70 67
100 100 100 100 99 100 101 99 97 99 100 100 100 99 97 95 89 77 65 60 58 54 45 33 28 35 43 43 42 39 29 20 18 16 14 13 11 9 9 8 8 8 9 10 11 14 15 15 14 14 16 20 23 23 22 19 18 20 24 25 23 20 20 22 25 26 28 31 34 36 37 39 41 43 46 49 52 55 56 55 55 59 64 66 66 67 63
100 100 100 99 100 100 100 100 100 99 101 101 99 98 98 92 78 65 58 55 53 54 52 46 40 37 36 31 25 21 15 11 9 9 9 8 7 7 7 7 8 9 9 9 9 9 11 11 11 11 11 11 13 15 17 17 16 16 15 14 14 12 11 10 9 11 14 16 19 24 26 27 26 27 31 37 40 41 43 44 47 53 61 62 61 61 60
100 100 100 100 99 100 100 101 100 101 102 100 98 99 94 79 63 57 53 44 39 42 49 52 44 30 20 15 12 9 7 7 7 7 8 7 7 8 7 7 8 9 9 10 10 9 8 8 9 9 9 11 11 10 11 12 11 11 9 9 9 8 9 9 9 16 29 39 45 49 49 43 36 29 27 29 34 42 49 52 52 52 55 58 58 57 56
100 100 100 100 100 101 100 99 100 102 101 99 98 91 72 55 53 60 56 44 39 41 41 38 30 18 10 9 7 7 8 8 8 8 9 9 9 9 9 9 10 10 10 9 9 9 9 8 9 8 7 8 9 9 10 9 8 9 8 7 7 8 9 10 10 17 33 49 61 66 67 62 54 43 35 34 41 53 59 59 59 60 61 64 64 61 58
101 100 100 100 100 100 100 100 102 101 101 100 90 70 53 53 65 71 61 48 42 34 24 18 16 12 9 9 9 9 10 10 10 10 9 9 9 8 7 7 8 9 9 9 9 10 10 10 10 9 8 7 6 6 8 8 8 10 11 10 12 12 11 13 14 12 16 29 48 64 72 70 63 53 46 46 52 58 59 60 68 76 81 81 78 74 71
101 101 101 100 100 100 100 98 98 99 101 92 69 51 51 61 65 60 49 38 28 17 9 9 11 10 10 11 11 11 10 10 9 9 8 7 6 6 6 6 6 6 7 7 7 8 10 12 13 13 12 9 7 7 8 8 10 12 12 15 20 21 18 17 16 17 20 24 33 51 66 68 62 54 50 50 50 52 55 66 79 87 88 87 85 80 74
101 101 100 101 101 95 87 86 90 93 85 66 47 44 52 53 48 43 35 23 14 9 8 11 11 11 11 12 11 10 10 9 9 8 7 5 7 9 9 9 10 12 14 17 20 20 19 18 18 18 15 11 7 7 9 12 17 21 22 24 27 30 31 25 19 34 58 60 46 47 62 68 61 52 49 49 50 54 63 79 92 95 91 90 89 85 77
101 100 101 100 90 74 67 73 79 72 55 43 42 47 47 44 42 35 22 11 8 10 11 13 13 13 12 11 10 10 10 9 8 6 5 9 17 22 23 29 39 44 46 48 44 34 28 28 26 20 17 15 12 11 17 22 25 26 30 34 34 35 42 46 49 66 91 96 81 71 72 70 62 56 63 72 77 81 89 95 99 99 97 95 93 87 79
100 102 98 86 67 54 56 63 58 45 39 42 46 43 41 41 36 22 10 8 11 12 14 14 14 14 13 12 12 11 10 9 7 6 7 20 35 40 43 56 69 70 66 65 57 42 33 34 34 27 27 35 40 40 43 45 44 42 45 52 54 48 48 61 77 84 84 84 83 78 72 66 61 66 83 98 100 98 100 101 100 101 101 99 95 91 87
102 98 83 64 50 45 47 45 36 33 40 44 40 37 38 34 20 9 8 11 12 14 15 15 15 14 15 14 14 13 11 9 8 6 9 23 39 45 49 60 67 62 58 63 68 62 48 41 41 41 48 63 73 73 68 62 61 64 64 63 65 61 55 61 75 77 67 64 68 67 63 60 59 63 78 94 100 100 100 98 98 101 102 100 99 98 98
95 79 60 47 40 36 32 29 28 33 38 38 36 38 35 22 9 7 11 13 15 16 16 16 17 17 17 17 16 14 12 10 10 8 7 16 32 42 48 53 55 57 59 62 65 66 63 62 65 64 66 77 85 83 78 70 62 64 65 59 56 57 57 58 61 60 56 56 57 59 58 56 54 54 63 81 97 102 100 96 94 97 100 101 101 101 100
72 55 44 36 30 26 26 28 31 35 36 36 39 38 27 12 7 10 14 15 17 18 17 18 20 20 20 21 19 17 16 13 12 11 7 8 19 34 46 50 49 53 59 60 64 71 75 79 82 74 70 77 79 74 74 72 64 63 65 60 53 50 51 51 50 49 51 52 53 56 58 57 58 57 60 77 96 102 101 100 96 94 99 102 101 100 102
48 38 33 27 24 26 31 33 36 38 38 40 42 33 18 8 9 13 15 17 19 19 19 21 22 22 23 24 22 22 21 17 15 15 12 8 9 18 34 46 52 55 55 54 69 87 87 79 76 73 71 76 75 71 74 76 74 74 71 62 54 49 47 48 46 44 46 47 45 48 52 58 69 77 78 87 99 100 100 102 96 89 92 97 95 92 92
33 30 27 26 28 31 34 36 39 40 41 43 39 24 10 8 12 15 17 19 19 20 22 23 22 23 25 25 25 26 25 23 21 19 16 14 10 8 14 24 34 45 49 48 60 78 82 77 75 71 66 65 65 68 74 75 73 74 71 61 53 46 44 50 50 45 46 50 48 53 64 74 86 95 95 97 101 100 100 102 96 86 82 79 73 69 68
30 30 29 29 30 32 36 42 44 43 44 44 33 16 8 10 14 16 18 20 19 20 22 22 22 23 23 24 26 27 27 28 29 26 22 20 16 12 10 9 10 19 32 43 55 66 71 74 74 67 61 57 53 55 64 68 69 74 76 69 58 48 51 65 68 64 71 82 83 84 93 97 98 101 101 101 103 101 97 92 84 74 65 59 54 52 50
33 32 32 32 34 38 43 46 45 45 46 40 24 11 8 12 15 17 19 19 19 20 22 21 21 21 21 22 23 25 27 28 30 31 30 27 24 20 16 12 9 7 11 25 45 60 68 71 68 63 60 54 46 46 54 60 68 81 87 80 69 61 65 78 83 81 90 100 99 97 101 101 98 98 97 96 96 94 87 78 70 62 56 51 47 44 41
35 34 35 37 40 43 45 44 43 45 43 31 16 9 10 13 15 18 19 19 19 20 20 21 21 20 20 21 21 22 25 26 28 30 31 31 31 30 25 19 15 11 7 10 20 34 48 58 60 58 57 52 46 48 54 57 65 83 93 90 83 75 72 75 81 85 89 90 87 86 89 91 89 87 84 82 80 77 72 66 59 53 49 44 39 36 34
34 36 38 42 43 44 44 42 43 44 37 22 10 9 11 12 15 17 18 19 20 19 18 19 20 19 18 19 20 20 22 23 25 27 29 30 32 34 32 28 23 17 13 11 9 10 18 28 34 41 47 50 49 52 56 57 62 76 87 88 83 76 69 68 73 77 77 76 73 71 72 74 74 71 68 67 65 61 58 54 50 46 40 35 29 25 22
37 40 43 44 44 45 45 44 45 45 34 17 8 9 11 12 14 16 18 19 20 19 18 18 19 19 18 18 18 19 20 22 23 24 26 28 31 32 34 35 33 26 20 17 14 10 9 9 11 16 25 34 40 44 49 53 57 64 70 71 69 65 62 60 59 58 57 56 54 53 53 54 54 52 50 48 46 43 39 36 32 27 23 18 14 11 10
41 43 45 45 45 46 46 44 47 46 32 14 8 10 11 11 14 16 17 19 20 20 18 17 17 18 18 17 18 18 18 19 21 23 24 25 28 30 32 35 35 32 28 25 23 18 13 11 11 9 9 12 17 23 28 34 40 46 50 51 52 52 50 48 47 45 44 43 42 40 38 37 35 33 30 28 24 21 17 14 12 11 9 9 9 9 9
44 44 45 44 45 47 46 46 49 45 29 12 9 10 11 11 14 15 16 18 20 19 18 17 16 16 16 16 16 17 17 17 19 21 23 24 26 27 30 32 33 34 34 33 30 25 19 16 15 15 12 10 9 9 10 13 16 20 23 26 28 29 28 28 27 26 25 25 24 23 20 18 17 15 13 11 9 8 7 8 8 9 9 9 10 10 10
45 44 44 44 46 48 48 49 51 44 26 11 9 11 11 11 13 15 16 16 17 18 18 16 15 15 15 15 15 16 16 16 17 18 20 23 25 26 28 29 30 32 35 35 33 31 28 23 20 18 17 15 13 12 11 10 9 9 10 11 12 11 11 12 11 11 11 11 11 10 9 8 8 8 8 7 8 8 9 9 9 9 10 11 11 11 10
44 43 43 44 47 49 50 52 52 42 24 11 9 11 11 11 12 14 15 15 16 18 17 15 14 14 13 13 14 15 14 14 16 17 19 21 23 25 27 29 29 30 33 33 33 35 35 32 28 24 20 16 15 15 13 12 12 11 10 10 10 9 9 9 9 9 9 8 8 8 8 8 8 8 8 8 9 9 9 10 10 11 11 11 10 10 9
41 41 42 45 48 50 51 53 52 40 22 11 10 11 11 12 13 13 13 14 15 15 14 14 13 13 12 11 12 13 14 13 14 15 17 21 23 24 26 29 31 32 33 33 33 35 37 37 35 32 27 22 18 16 15 14 14 13 12 12 11 10 10 10 9 9 9 9 9 9 8 8 9 9 9 9 10 10 10 10 10 11 10 9 9 8 8
38 40 43 46 49 51 51 53 52 40 22 11 10 11 11 12 13 13 13 14 14 13 12 12 12 11 11 11 11 12 12 13 13 15 17 20 23 25 27 30 31 33 35 35 35 36 37 38 38 38 36 31 25 21 19 17 16 15 14 13 13 12 12 11 11 11 11 11 10 10 10 11 11 10 11 11 11 11 11 11 10 9 9 8 8 8 7
35 40 45 48 52 53 53 53 52 42 25 13 9 11 11 12 13 12 12 13 13 12 12 11 11 10 10 10 11 11 11 11 12 15 17 20 23 26 29 32 34 35 36 37 38 38 39 38 38 39 39 38 35 31 27 23 21 19 17 15 14 14 14 13 13 13 13 13 12 12 12 12 12 12 12 11 11 11 11 10 9 8 8 8 8 7 7
33 40 48 53 56 56 56 55 54 45 31 16 10 9 11 11 12 12 12 11 12 12 11 10 10 11 11 10 10 11 11 12 13 14 17 21 25 28 31 35 36 35 37 41 41 40 40 39 38 38 40 39 37 36 34 31 28 25 23 21 19 17 16 16 16 15 15 14 14 14 13 13 13 12 12 11 11 11 10 9 8 8 8 8 8 8 7
32 41 51 58 59 58 58 57 54 48 36 21 11 9 10 10 10 11 11 10 11 11 10 10 10 9 10 10 11 11 12 13 15 17 19 24 29 32 34 37 37 36 38 42 42 40 40 40 38 37 39 38 36 35 35 34 33 31 29 28 25 22 19 18 17 16 16 15 14 14 14 13 12 11 11 11 10 9 9 9 9 9 9 9 9 8 7
32 42 54 61 62 61 61 59 54 50 41 28 15 11 10 9 9 10 10 10 11 10 9 10 10 9 9 10 10 11 13 15 18 21 24 28 32 34 35 37 37 36 39 41 40 39 41 41 38 36 36 34 32 33 33 31 30 31 31 30 29 26 22 20 18 17 16 15 14 13 13 12 11 11 10 9 9 9 9 9 9 9 10 10 9 8 8
32 45 58 66 67 65 64 62 58 55 49 38 24 16 12 9 8 9 9 9 9 9 9 9 9 9 10 12 13 15 18 20 22 26 29 31 33 35 36 38 37 36 38 41 40 38 40 41 37 35 34 33 31 31 29 26 25 27 28 28 29 28 24 21 19 17 16 14 14 12 11 10 10 10 10 9 10 10 9 9 10 10 9 9 8 8 9
34 47 61 69 70 69 68 65 59 56 51 42 32 24 18 12 9 9 9 8 8 8 9 11 12 12 13 15 18 22 24 25 27 30 32 33 35 36 37 39 37 36 38 41 39 35 37 40 37 33 33 33 31 29 26 22 21 23 23 24 26 26 23 21 19 17 15 13 12 11 10 10 9 9 10 10 10 10 9 9 9 9 9 9 9 10 10
35 47 59 66 69 70 68 62 56 52 46 39 33 29 24 18 14 12 11 10 12 13 14 16 18 18 19 22 26 27 28 29 31 32 32 34 35 36 37 38 36 35 39 42 39 35 36 38 36 34 35 33 29 25 22 21 20 20 20 21 23 23 22 20 18 15 13 12 11 10 10 10 10 10 10 10 9 9 9 9 9 9 10 10 11 11 12
33 44 54 60 64 66 64 59 53 49 44 38 33 30 26 22 20 19 17 17 20 22 22 24 25 25 26 28 30 30 31 32 33 34 35 35 36 37 37 36 35 37 42 44 41 36 36 37 35 34 34 31 25 21 20 19 18 18 18 18 20 20 19 17 15 14 12 11 10 10 10 10 10 10 9 9 9 9 9 10 10 11 12 12 13 13 13
30 38 45 50 54 59 60 56 52 48 45 40 36 32 29 26 26 25 25 26 29 30 29 29 31 32 32 32 31 32 35 36 35 36 37 38 37 37 35 34 36 41 44 42 40 38 37 36 36 35 33 29 24 20 18 16 16 17 17 17 17 18 16 14 12 12 11 10 11 11 10 10 10 9 9 9 10 11 12 12 13 13 13 14 14 14 14
27 32 35 37 42 49 53 53 52 51 49 45 41 37 34 32 33 34 35 36 36 35 34 34 36 37 37 37 36 36 38 38 37 37 38 37 35 33 31 31 34 39 40 38 37 37 36 35 36 37 34 28 22 19 16 15 15 15 16 16 15 14 13 12 11 11 11 11 11 10 10 9 10 10 11 12 13 13 13 14 14 14 14 15 15 15 15
24 27 28 28 31 38 43 45 47 50 50 49 47 47 44 42 42 43 43 42 40 37 37 39 41 40 39 39 39 38 37 37 37 37 35 31 27 24 23 25 27 29 30 30 32 32 33 35 38 38 32 26 20 17 15 14 14 14 14 14 13 12 11 11 11 11 11 11 10 10 10 11 12 13 13 14 14 14 14 14 14 15 15 15 16 16 16
Wind_Speed
26 26 26 25 23 21 21 22 22 23 24 24 25 25 26 26 23 22 24 26 27 28 28 29 31 35 38 40 39 34 34 40 41 37 38 37 35 34 30 27 31 33 32 31 29 29 29 29 29 28 26 25 24 23 23 25 28 31 30 31 32 31 31 31 29 27 29 30 27 26 25 20 24 32 34 32 32 31 27 24 24 25 26 26 26 25 25
27 27 27 26 24 23 25 25 25 26 26 26 26 26 26 25 22 22 25 26 27 30 31 34 36 39 41 42 42 38 36 39 40 37 37 37 35 34 32 30 31 32 31 30 29 29 30 30 30 30 28 27 27 26 25 25 27 30 31 30 29 31 33 33 32 31 32 33 29 26 29 27 27 33 38 37 35 32 29 27 27 27 28 29 28 28 26
28 28 28 27 25 26 28 28 28 28 28 28 30 30 29 24 20 23 26 27 29 32 34 37 39 42 43 43 44 42 38 38 38 36 35 36 36 35 33 31 31 32 31 30 30 31 31 30 30 30 29 28 29 28 27 26 28 29 31 30 28 30 33 33 34 34 34 35 32 28 29 30 29 31 37 40 38 34 32 31 30 30 30 30 30 30 28
30 30 29 28 27 28 30 30 30 30 30 32 33 33 29 22 20 24 27 29 31 33 35 37 39 41 42 42 42 41 38 36 36 34 31 32 33 34 34 32 31 32 32 31 31 32 32 32 31 29 28 28 29 29 29 28 29 29 30 31 30 30 31 31 32 34 33 34 35 32 30 32 31 30 32 37 38 37 36 34 32 32 32 31 31 31 29
31 31 30 29 29 31 32 31 31 32 33 34 34 32 27 21 22 26 29 30 32 33 35 36 36 38 38 38 37 36 33 30 30 30 28 27 28 30 32 32 32 32 33 33 32 30 31 32 31 29 29 27 27 29 31 30 30 31 31 32 32 31 32 31 31 33 33 34 36 35 34 34 33 31 29 31 33 35 36 34 32 32 31 30 31 32 31
32 31 31 30 31 32 32 32 32 33 34 35 33 29 24 21 25 28 29 29 31 31 32 32 31 32 31 31 30 29 27 25 26 27 26 24 24 25 29 32 34 33 33 34 33 30 30 32 32 31 28 26 26 27 30 32 32 32 33 34 34 33 33 33 32 32 33 34 36 37 37 36 36 34 32 31 32 33 33 32 32 31 30 29 30 30 29
32 31 32 32 32 33 33 32 34 35 35 35 31 26 22 22 26 29 28 29 29 30 30 28 27 26 26 26 26 25 24 23 24 25 25 22 22 24 28 32 34 33 31 33 35 34 32 33 35 34 31 29 28 26 27 31 33 35 36 36 36 36 36 35 34 33 31 31 34 37 39 39 39 37 35 34 33 33 34 33 32 32 31 30 30 30 28
33 32 32 33 33 34 33 33 35 36 36 34 30 26 24 24 26 28 29 28 28 27 26 26 25 24 24 24 24 24 24 23 24 25 23 22 22 24 26 28 31 32 31 33 35 35 34 34 35 35 34 33 32 30 28 28 30 33 37 39 38 37 37 36 35 33 33 31 31 34 39 41 41 39 37 37 35 34 35 35 34 33 32 31 30 30 28
33 33 33 34 34 34 34 35 35 36 36 32 28 26 25 24 25 28 29 27 26 25 24 25 24 23 23 23 23 23 24 24 24 24 23 23 23 24 25 26 27 29 30 31 32 32 32 33 34 34 34 34 33 33 33 31 29 29 33 39 42 41 39 38 36 35 35 34 32 33 36 40 42 41 38 37 36 35 35 35 34 33 32 32 31 30 29
34 34 34 34 34 35 35 35 36 37 36 31 27 25 24 23 25 28 28 26 25 25 25 25 23 21 21 22 23 23 24 24 24 23 22 22 22 23 23 24 25 25 26 27 27 27 27 28 30 32 32 32 31 31 32 33 32 31 30 33 39 42 43 42 40 38 37 36 35 34 34 36 40 42 41 39 36 35 35 34 34 34 33 33 33 31 29
34 35 35 35 35 36 36 36 36 37 35 30 27 26 25 24 26 29 30 27 26 27 27 26 24 21 21 21 22 22 22 22 22 21 20 19 18 17 17 19 21 23 24 23 22 21 21 24 27 29 30 30 29 29 29 31 31 31 31 31 33 36 39 40 40 39 36 35 36 37 37 36 36 37 39 39 38 36 36 35 35 36 37 37 36 34 31
35 35 36 35 35 36 36 36 36 37 36 30 28 27 27 25 25 28 31 29 27 26 27 27 25 23 21 20 20 20 19 19 18 18 18 17 16 15 15 16 19 20 21 21 19 18 20 23 25 26 27 27 28 28 29 30 30 30 30 31 31 31 32 33 35 35 34 32 33 35 38 38 36 35 35 36 36 36 37 35 34 33 34 35 36 34 31
35 36 37 36 36 37 37 36 37 39 36 31 29 29 29 27 25 26 29 29 26 24 24 26 25 23 20 19 18 17 16 16 17 18 18 16 15 15 16 17 18 18 19 19 18 19 22 24 24 24 24 26 27 27 28 30 31 30 30 30 30 30 30 29 31 33 33 32 31 32 33 34 34 35 34 33 33 34 35 35 33 31 29 27 27 28 28
35 36 37 36 37 38 37 37 40 41 35 31 29 28 29 28 26 25 26 26 25 23 22 22 21 19 18 16 15 15 15 15 16 17 17 16 15 16 17 17 17 17 18 19 18 19 22 24 24 23 23 24 25 26 26 28 29 29 28 28 28 29 29 29 29 30 31 31 30 29 29 29 31 33 34 33 31 31 31 32 32 32 30 27 24 24 26
35 36 37 37 37 38 38 38 41 41 36 33 29 25 28 30 29 26 24 22 21 20 20 19 19 17 16 15 14 14 14 14 15 15 15 15 16 18 18 17 18 19 20 20 19 20 21 22 22 23 23 23 24 25 26 27 27 26 25 25 26 27 28 28 28 29 30 30 29 27 25 25 26 28 30 31 31 31 31 31 31 31 31 29 26 24 24
35 36 37 37 38 39 39 39 41 41 36 31 28 25 27 30 29 25 22 21 19 18 17 18 18 17 15 13 12 12 13 13 14 14 15 15 16 16 16 15 17 19 19 19 20 20 21 22 23 23 23 23 24 25 26 26 26 25 24 24 24 24 25 26 27 28 29 30 30 28 26 24 24 24 25 28 29 30 30 31 32 31 30 29 28 25 24
36 37 37 37 38 39 39 38 41 41 35 28 25 25 26 27 27 24 22 20 19 17 15 16 17 15 13 11 10 10 10 11 12 13 13 14 14 14 13 13 15 16 17 18 19 19 20 22 23 24 25 25 25 25 25 25 25 24 24 26 26 25 25 26 26 27 28 28 29 29 28 27 27 26 26 26 27 27 29 30 30 29 29 29 28 27 25
36 37 37 37 38 38 38 38 40 41 35 26 23 25 26 25 24 22 21 21 20 17 14 13 13 13 12 11 10 10 9 9 10 10 11 12 12 12 13 13 14 15 18 19 19 20 21 22 23 24 25 25 26 26 26 25 24 24 24 26 26 25 25 25 25 25 26 27 27 27 27 27 28 29 29 28 27 27 27 27 26 27 28 29 29 29 28
35 37 37 38 38 38 37 37 40 42 35 27 24 26 25 25 23 21 20 20 19 17 13 11 12 13 12 12 11 11 10 9 9 10 11 12 14 15 16 15 16 18 20 21 22 22 22 23 23 25 25 25 26 26 26 26 25 24 24 25 25 24 24 24 23 22 22 24 24 24 24 25 26 27 29 29 28 26 24 23 24 26 28 29 29 30 30
34 36 37 37 37 37 36 36 41 43 35 27 27 27 25 24 23 20 18 18 17 16 14 13 14 13 12 11 10 8 8 8 8 10 12 14 16 17 18 17 18 21 22 23 23 24 24 24 24 25 26 26 27 27 27 26 26 25 25 24 24 24 23 23 23 22 22 23 23 22 21 22 23 25 26 27 27 24 23 23 24 24 24 26 27 28 29
33 36 37 37 36 36 36 38 43 43 34 27 28 28 26 24 22 20 19 18 17 16 14 14 14 12 10 9 7 6 6 7 9 11 12 14 16 18 19 19 20 22 24 24 25 25 25 26 26 26 26 27 27 28 28 27 27 26 25 25 24 24 24 23 22 22 22 23 23 22 21 21 22 23 24 25 25 24 24 24 23 22 22 23 23 24 25
33 36 37 36 35 37 39 41 44 41 34 29 28 27 25 24 22 20 19 18 17 16 15 14 13 10 8 7 5 5 6 7 8 9 11 14 17 18 20 21 22 23 24 25 25 26 26 27 27 27 27 27 26 27 27 27 26 26 26 26 24 24 24 23 22 22 22 24 24 24 22 21 20 21 23 24 23 23 24 24 23 23 24 23 23 23 23
35 37 36 36 38 40 42 43 42 39 33 30 29 27 25 24 22 20 20 19 18 17 15 13 10 9 7 5 4 4 4 4 6 8 11 14 16 17 18 18 18 18 19 19 20 21 22 23 24 24 24 24 24 24 24 25 25 25 25 24 23 22 22 21 21 20 20 21 24 25 24 22 20 19 21 22 22 22 22 23 24 25 25 25 24 24 24
36 36 37 39 42 43 43 42 39 36 33 31 29 27 26 24 21 20 21 21 20 18 15 12 10 8 7 5 4 2 0 2 5 9 11 12 11 10 9 8 8 9 10 10 12 13 14 15 16 18 18 18 19 20 20 21 22 21 21 21 22 21 20 18 18 17 16 16 18 20 21 20 19 18 17 17 19 20 21 22 23 23 23 23 23 23 23
36 38 40 43 44 43 42 40 37 34 32 30 29 28 26 24 23 22 22 21 19 17 15 13 11 9 7 5 4 3 3 4 7 11 10 6 4 2 4 5 5 5 7 7 7 8 10 11 12 13 13 13 14 15 16 17 18 18 17 17 18 20 20 19 19 17 14 13 14 15 16 16 17 18 17 15 16 18 19 20 20 20 19 18 18 18 18
39 42 44 44 43 42 40 38 35 33 31 29 28 27 25 24 25 24 22 20 18 16 15 13 11 9 8 7 6 6 6 7 10 12 9 3 1 3 5 6 6 5 7 7 6 6 9 11 11 12 12 11 10 11 14 16 17 17 17 16 16 16 17 20 20 18 15 15 15 15 15 15 17 19 20 19 18 18 17 17 18 17 16 16 15 14 14
43 45 45 43 42 40 38 36 34 32 30 29 28 27 26 26 26 25 22 19 18 16 14 12 11 10 9 8 8 7 8 9 11 13 12 6 3 5 6 7 7 7 10 10 7 6 10 12 12 12 12 10 8 8 10 12 15 17 18 17 17 16 16 18 19 18 17 16 16 16 16 17 17 19 21 22 21 20 18 18 17 16 15 15 14 14 14
45 45 43 42 41 39 37 35 34 32 31 30 28 26 26 27 26 24 22 20 18 16 14 13 11 10 10 9 9 9 9 10 11 13 15 13 7 6 7 7 8 8 10 10 7 8 11 12 12 12 11 10 9 8 7 9 13 15 15 16 16 16 16 17 18 18 17 17 17 16 17 18 18 19 20 20 20 19 18 16 15 14 14 14 13 13 13
44 43 42 41 39 38 37 35 34 32 30 28 27 27 28 27 26 24 22 20 18 16 14 12 12 11 10 10 10 10 10 11 13 14 16 17 14 10 8 8 8 9 10 9 9 10 12 12 11 11 11 10 10 8 7 9 13 14 14 15 15 14 14 15 16 17 17 17 17 17 17 18 18 19 19 19 18 19 19 16 14 13 13 13 12 12 12
43 42 41 40 39 38 36 34 32 31 29 28 28 29 29 28 26 24 22 20 18 17 15 13 12 11 11 10 10 11 11 12 14 15 15 17 18 17 13 10 8 9 10 11 11 11 12 13 12 12 11 10 10 10 10 11 14 14 14 15 14 13 13 14 14 16 16 16 16 16 17 18 19 19 20 20 18 18 17 16 14 13 12 11 11 11 11
42 40 40 39 38 37 35 33 31 30 30 29 30 30 30 28 26 24 22 20 18 17 15 13 12 11 10 10 11 11 12 13 14 15 16 16 17 18 18 17 13 9 9 11 12 12 13 13 13 12 11 10 9 10 11 12 13 14 14 14 14 13 12 12 13 14 14 14 14 14 16 18 19 18 18 17 16 15 15 14 14 13 12 12 11 11 11
41 40 39 38 37 35 34 32 31 30 30 30 31 31 30 28 26 24 22 20 18 17 15 14 11 10 10 10 11 11 12 13 14 15 15 17 17 17 18 19 19 17 13 11 12 13 13 13 13 12 12 11 10 11 12 12 13 13 13 13 13 12 11 11 10 11 12 12 12 12 12 13 14 13 13 13 13 13 13 13 13 13 12 12 11 11 11
40 39 38 37 36 35 33 32 32 32 31 32 33 32 30 28 26 24 22 20 18 17 16 14 12 10 10 10 11 11 11 12 14 14 14 16 17 17 17 18 18 20 21 18 14 11 12 12 12 11 11 11 11 12 12 11 12 13 13 13 13 13 11 11 11 10 11 11 11 11 11 10 10 10 10 10 10 11 12 12 12 11 11 11 11 11 11
39 38 37 36 35 33 32 31 31 31 32 33 33 32 30 28 26 24 22 20 18 16 15 15 13 10 9 9 10 10 10 11 13 13 13 14 16 16 17 18 18 18 20 21 20 17 15 13 11 10 10 11 11 12 12 11 12 12 12 12 13 13 12 11 11 11 12 11 11 11 11 11 10 9 9 9 9 9 9 9 9 9 9 9 9 9 9
38 37 36 35 34 32 31 30 31 31 31 33 33 32 30 28 26 23 21 19 17 15 15 15 14 10 8 8 9 10 10 10 12 12 12 13 14 16 17 17 16 17 19 19 19 19 20 20 18 14 12 11 11 11 11 10 10 11 11 11 11 11 12 11 11 11 11 11 11 11 11 10 9 9 8 8 8 7 7 7 7 6 5 4 4 3 3
38 37 36 34 33 32 31 32 32 31 32 33 33 31 29 27 25 23 21 19 17 15 14 14 14 12 10 9 9 9 9 9 10 11 12 12 13 14 15 15 14 15 17 18 17 17 18 20 20 19 18 16 15 13 12 11 10 10 10 9 9 9 9 9 9 9 9 9 9 8 8 8 8 7 7 7 7 6 6 6 5 4 4 4 4 3 3
37 36 35 34 32 32 32 32 32 32 32 33 32 30 28 27 25 24 22 21 19 16 13 12 12 11 11 10 9 9 9 8 9 10 10 10 11 12 12 13 13 14 15 16 16 16 16 17 18 18 18 19 19 18 17 16 15 14 13 12 11 11 10 10 10 9 9 9 9 9 9 10 9 9 9 9 9 9 8 8 7 7 6 6 5 4 4
36 35 34 33 32 31 31 32 31 32 33 33 32 31 29 28 26 25 23 22 20 17 14 12 11 10 9 9 8 8 8 7 8 8 8 8 9 10 10 11 12 12 13 14 14 14 15 15 16 16 16 16 17 17 18 18 18 17 17 16 16 15 15 14 14 14 13 13 13 13 13 13 13 13 12 12 12 11 9 8 7 6 5 5 4 4 4
36 34 33 32 32 31 32 32 32 32 33 33 32 31 29 28 27 25 23 22 21 19 17 14 12 10 9 8 7 7 6 6 6 7 6 6 7 8 9 9 10 10 10 11 12 12 13 14 14 14 14 14 15 15 16 16 17 17 17 16 16 16 16 16 16 16 15 15 15 14 14 14 13 13 12 11 10 9 8 7 6 6 6 6 5 6 7
35 34 33 32 32 32 32 32 32 32 33 33 32 31 29 28 26 25 23 21 20 19 17 15 13 11 9 8 7 6 5 5 5 5 5 5 6 6 7 7 8 8 8 8 9 10 11 11 12 12 12 12 13 13 14 14 15 15 15 15 15 15 15 15 14 14 14 14 14 13 13 12 11 11 10 10 9 8 8 8 7 7 7 7 7 8 8
33 33 33 32 32 32 32 33 33 33 34 34 33 31 29 27 25 24 22 21 19 17 16 15 13 11 9 8 6 5 4 4 4 4 3 4 5 5 5 6 6 6 6 6 7 7 8 9 9 10 10 10 10 11 11 12 12 12 12 13 13 13 13 13 13 13 12 12 12 12 12 11 11 10 10 10 10 9 9 9 9 9 8 7 7 7 8
32 32 32 32 32 32 32 33 33 33 33 34 33 31 29 27 25 23 21 19 17 15 14 13 11 10 8 7 6 5 4 3 3 2 2 3 4 3 4 5 5 5 6 5 5 5 6 6 7 8 8 8 8 8 9 9 10 10 10 10 10 11 11 11 11 11 10 10 10 10 10 10 10 10 9 9 9 9 8 8 8 8 7 6 6 6 7
32 32 31 31 31 32 32 32 32 32 32 33 33 31 29 27 25 23 21 19 17 15 13 12 10 9 8 7 6 5 4 3 3 2 2 2 3 3 4 4 4 5 6 5 4 4 4 4 5 6 6 6 6 7 7 7 7 8 8 8 7 8 8 9 9 9 9 9 9 9 9 8 8 8 8 8 8 8 7 7 7 6 5 4 5 5 6
33 32 31 30 30 30 30 30 31 30 30 31 31 30 28 26 24 22 20 18 16 15 14 12 10 9 9 8 7 6 5 4 3 3 2 2 2 3 4 5 5 6 7 7 5 5 5 4 4 4 5 5 6 6 6 6 6 7 7 7 6 6 7 7 7 8 8 8 8 8 8 8 8 8 8 7 7 6 6 5 5 4 3 3 4 5 5
32 31 30 29 28 28 28 29 28 28 27 28 28 28 26 24 22 20 19 17 17 16 15 13 12 10 10 9 8 6 5 5 5 4 3 3 2 3 4 5 5 6 8 7 5 5 5 4 3 3 3 4 4 5 5 6 7 7 7 7 7 7 7 7 8 8 8 8 8 8 9 9 8 8 7 7 6 5 5 4 4 3 3 3 4 4 5
32 30 28 27 27 27 26 26 26 26 25 26 27 27 26 25 24 23 21 21 20 18 16 15 14 13 12 10 8 8 7 7 6 5 4 4 3 3 4 4 4 5 7 7 6 6 7 6 4 3 3 3 3 3 4 5 6 7 7 7 8 8 7 7 8 8 8 8 8 8 8 8 8 8 7 6 6 5 5 4 4 4 4 4 4 5 5
32 31 29 28 27 27 26 27 27 28 28 28 28 27 27 27 27 26 24 23 21 18 16 15 15 15 13 11 9 9 9 8 7 6 6 6 4 3 3 3 3 4 5 5 5 7 8 7 5 3 3 3 2 2 3 3 4 5 6 7 8 8 8 8 8 8 8 8 9 9 8 8 8 7 7 7 6 6 6 5 5 5 5 5 4 5 5
33 32 30 29 29 28 29 29 29 29 29 29 28 28 27 27 25 24 23 21 19 17 17 17 16 15 13 11 10 10 9 9 8 8 7 6 5 3 2 3 2 4 5 4 4 5 7 6 5 4 3 3 3 3 3 3 3 4 5 6 8 8 8 8 7 7 7 8 8 9 9 8 8 8 8 8 8 7 7 6 6 5 4 4 4 5 5
32 31 30 30 30 30 30 30 30 29 29 28 28 27 26 25 23 21 20 19 18 17 17 17 15 14 13 12 11 11 10 9 9 8 7 6 5 4 3 3 2 5 6 5 4 4 5 5 4 3 3 3 3 3 3 3 4 4 5 6 7 8 8 8 8 7 8 8 8 8 9 9 9 9 9 9 8 7 6 6 5 4 4 4 4 5 5
32 31 30 30 30 30 30 29 29 29 28 27 26 25 24 23 22 21 19 18 17 17 17 15 14 14 13 13 12 11 10 10 9 8 7 6 6 5 3 2 4 6 7 7 5 4 4 4 3 3 3 2 2 2 3 4 5 5 5 5 7 7 8 8 8 8 9 9 9 9 10 10 10 10 9 9 7 6 5 4 4 4 4 4 5 5 6
33 32 30 29 29 29 29 29 28 27 26 26 25 24 22 21 21 20 18 18 18 18 17 15 14 14 14 13 12 11 11 10 9 8 8 7 6 4 3 3 5 7 7 7 5 5 4 3 3 3 3 2 3 3 4 4 5 6 5 6 6 7 8 8 9 9 10 10 10 11 11 11 10 9 8 7 6 5 5 4 4 4 4 4 5 5 6
34 33 30 29 29 28 28 27 27 26 25 24 23 22 21 20 20 20 19 19 19 18 16 15 14 14 13 12 12 11 11 10 9 8 8 6 4 4 4 5 6 6 6 5 5 5 4 3 3 4 4 3 4 5 5 5 6 6 7 7 7 8 9 9 10 10 11 11 12 12 11 10 9 7 6 6 5 5 4 4 4 4 4 4 5 5 7
Wind_Direction
189 188 186 184 183 184 180 177 179 176 174 175 175 178 180 176 174 180 186 189 190 187 182 173 167 166 168 169 169 176 187 184 180 180 181 182 181 179 177 177 181 183 183 181 182 186 189 191 197 204 205 202 203 208 208 201 196 195 197 202 201 198 196 197 199 197 196 206 214 206 200 199 202 207 210 210 212 217 219 216 219 229 236 238 240 243 246
188 186 183 181 180 178 174 172 172 170 169 169 167 166 163 159 166 175 177 178 177 173 168 163 163 167 170 171 174 181 188 185 181 181 184 185 183 178 175 178 184 190 192 191 189 190 193 194 197 203 207 205 203 207 210 207 201 196 196 200 201 200 201 200 200 199 197 204 210 204 204 206 204 207 209 208 209 212 214 216 220 229 237 240 239 240 242
186 183 180 178 177 174 170 168 167 166 165 162 159 156 149 149 164 171 167 167 165 162 161 163 167 170 172 175 180 185 189 186 183 184 188 191 189 183 179 181 188 194 200 202 197 195 197 198 201 206 209 208 204 204 207 207 204 200 199 201 200 203 206 204 204 204 201 203 207 203 204 210 209 208 210 210 210 210 213 218 222 227 234 238 238 238 239
183 180 178 176 174 171 168 165 164 163 162 160 159 153 145 149 167 167 161 161 161 160 163 168 172 173 175 179 184 188 190 188 186 188 192 197 198 196 192 191 193 196 203 210 209 205 205 206 209 211 212 212 209 205 207 209 207 204 203 205 205 206 209 208 209 211 207 204 208 208 208 211 211 209 211 214 215 216 219 222 225 227 230 234 238 240 241
179 177 176 175 172 169 166 163 162 161 161 161 159 152 145 151 164 164 162 162 161 163 167 172 174 175 178 182 186 190 192 191 192 195 200 203 203 204 204 202 201 199 203 212 217 214 212 213 215 214 212 215 216 212 211 213 212 209 207 209 210 210 213 213 212 213 211 207 208 211 212 213 213 211 212 216 217 219 221 223 226 229 231 236 240 243 246
175 176 175 173 170 167 164 162 161 160 161 161 157 150 148 156 164 163 162 162 161 166 171 173 175 178 180 183 186 190 192 195 201 206 210 208 203 204 205 205 207 207 206 210 215 218 218 219 220 218 216 218 222 220 217 217 217 215 212 211 213 213 216 219 219 218 217 213 210 212 213 215 218 218 216 216 217 219 221 224 228 231 235 239 242 246 250
174 175 174 171 168 166 164 162 161 161 163 160 152 145 147 158 164 163 161 162 165 170 172 171 174 179 181 183 187 190 190 196 205 210 211 209 202 203 206 206 209 213 212 212 214 217 220 223 224 225 225 224 224 223 221 220 220 219 217 215 215 215 216 219 223 224 224 221 216 215 216 216 219 221 221 220 220 220 222 224 229 233 237 240 244 248 249
174 174 173 169 166 166 165 162 161 163 164 158 146 142 149 157 163 163 161 164 168 170 171 170 173 178 180 181 186 190 190 194 202 205 206 204 201 202 207 209 211 214 214 214 216 219 223 226 228 229 230 229 227 225 223 223 223 222 220 217 217 218 219 221 225 228 230 229 224 220 219 219 220 221 222 222 223 223 223 225 230 236 240 242 245 247 248
174 173 170 166 166 167 165 162 162 164 164 155 140 142 153 158 161 162 161 163 165 166 169 170 171 177 181 182 185 190 192 196 202 203 201 201 203 204 208 211 213 215 215 215 217 221 225 228 231 232 233 233 232 229 227 229 231 230 225 220 219 219 221 224 226 228 230 231 229 226 223 222 224 224 224 224 225 224 224 227 231 237 240 242 246 249 250
173 172 168 165 168 169 165 163 164 164 163 153 137 141 152 155 158 160 157 159 163 165 167 169 171 176 182 185 188 191 193 197 202 204 203 203 204 206 210 213 215 217 219 219 220 222 226 230 233 234 235 234 234 233 230 230 233 235 233 228 223 221 222 224 226 228 233 235 234 232 227 224 224 226 226 227 227 227 228 232 235 238 239 241 245 249 249
172 170 167 166 170 170 165 165 165 163 161 151 138 142 152 151 154 159 158 160 166 168 170 174 176 178 180 184 189 192 194 198 203 206 208 206 203 204 211 217 220 222 223 223 223 222 224 228 231 232 232 231 231 231 229 227 227 230 231 230 228 226 226 226 227 230 235 238 238 235 231 228 226 227 227 227 228 230 233 236 239 239 238 239 242 246 246
172 170 167 167 171 170 167 167 165 162 160 148 137 146 156 153 155 163 166 166 166 167 174 180 182 182 182 185 190 192 195 199 203 207 210 207 202 200 204 212 220 225 225 224 220 216 218 223 227 229 229 227 227 227 226 225 223 224 227 228 230 230 230 230 230 231 233 235 237 236 232 230 229 229 229 229 230 231 234 236 239 239 239 239 241 243 244
172 170 168 170 172 170 167 167 166 163 158 143 137 152 163 161 162 167 171 173 173 173 180 185 185 185 186 189 193 194 193 198 204 207 208 207 206 206 208 212 219 224 226 224 217 212 215 221 224 226 227 226 224 225 228 228 226 225 226 228 230 232 233 233 233 233 233 235 238 237 233 230 230 230 231 231 231 232 235 238 239 240 242 242 242 242 241
172 170 170 171 172 170 168 167 167 164 154 138 137 157 170 170 169 169 169 174 181 185 188 191 190 186 185 190 193 190 189 196 206 210 210 208 209 212 214 216 221 227 230 228 221 215 218 223 225 224 226 227 226 225 227 229 230 228 226 228 230 231 232 233 234 235 235 236 238 239 237 234 234 234 235 235 235 234 236 239 241 242 245 246 245 245 245
172 171 172 172 172 170 168 168 169 164 151 137 139 158 173 175 175 174 170 170 177 185 189 190 188 184 184 189 190 187 189 195 205 213 217 216 216 217 217 217 221 228 232 231 226 223 223 227 228 226 226 229 230 229 227 228 229 228 226 226 228 230 231 232 233 234 236 237 238 239 239 239 239 239 239 240 239 238 238 240 242 243 246 247 247 249 250
172 172 172 172 172 170 168 169 170 166 154 142 144 160 173 177 178 178 175 169 172 181 187 186 182 178 182 187 187 189 194 196 202 214 223 226 229 229 224 220 222 228 232 233 230 227 226 227 228 228 227 228 231 232 230 229 228 227 226 224 223 225 229 232 233 234 236 238 241 242 243 244 244 244 243 242 241 241 241 242 243 244 247 248 248 248 249
172 172 172 173 172 170 168 169 171 168 157 145 151 166 174 176 177 177 173 168 169 175 182 183 180 175 177 183 188 194 200 201 206 216 225 232 239 241 236 230 229 230 233 234 233 230 228 228 228 228 229 229 230 233 233 232 229 226 224 226 225 225 228 232 234 236 237 239 242 243 245 245 245 246 246 245 244 242 242 243 244 244 245 246 245 244 245
173 172 172 173 172 170 170 170 172 169 157 146 159 172 172 172 172 171 171 170 169 168 167 171 175 174 174 178 182 187 194 199 205 214 224 233 240 243 242 239 236 235 235 235 235 233 231 230 229 229 229 229 230 232 234 234 232 228 226 228 228 228 229 232 234 235 236 238 240 240 241 242 243 244 244 244 245 244 244 244 243 240 240 241 242 242 242
174 173 172 172 171 172 171 171 173 170 158 152 166 172 166 164 165 165 167 169 167 163 161 166 172 173 174 174 174 180 190 200 210 219 228 235 239 242 243 243 241 239 237 236 235 235 233 233 232 231 232 231 230 232 234 235 235 233 231 231 231 230 229 229 231 232 232 233 234 234 235 237 239 241 242 242 244 244 243 242 239 237 237 239 241 241 242
173 172 171 171 171 172 172 172 173 169 161 161 169 166 158 158 159 159 160 160 161 163 165 167 168 168 169 171 174 186 202 216 230 238 241 244 246 247 247 246 245 244 243 240 238 237 236 236 235 235 235 234 233 233 234 234 235 234 234 234 235 234 231 229 230 232 232 233 233 235 238 240 241 241 242 242 242 241 240 239 238 238 237 238 239 240 241
172 171 170 169 170 172 171 171 171 167 162 164 168 161 154 154 155 157 158 157 158 159 157 157 159 160 164 170 179 201 220 233 242 246 250 252 253 254 253 249 245 245 245 244 242 240 239 237 236 236 236 235 234 234 234 234 233 234 234 235 236 236 236 235 235 237 238 238 238 239 240 242 242 240 239 240 241 240 240 239 238 236 235 234 235 236 237
170 169 168 168 169 169 168 167 167 165 163 164 163 155 151 154 157 159 158 153 151 149 148 151 155 156 161 172 191 212 228 242 249 254 262 265 266 264 261 257 251 248 246 245 243 241 240 238 236 235 234 234 234 233 234 233 232 233 233 234 235 237 239 240 242 243 243 241 240 240 239 239 238 236 233 235 237 239 239 240 238 236 235 234 233 232 233
167 166 167 167 166 165 163 163 164 164 163 161 157 152 154 159 159 155 150 147 146 145 146 149 151 152 159 169 187 207 227 253 269 280 284 280 275 270 263 257 252 247 243 241 239 237 235 234 233 231 230 230 230 230 230 230 230 231 232 233 234 235 238 241 243 241 236 234 234 235 237 237 237 235 232 233 236 238 238 238 237 235 235 234 232 231 231
165 165 165 164 162 161 161 162 162 162 160 156 153 154 158 158 153 149 147 147 146 145 145 145 145 147 151 150 151 156 288 319 319 318 310 296 284 272 254 239 233 229 225 223 223 222 220 219 219 220 220 220 222 224 225 227 228 228 229 231 231 231 231 231 227 222 220 222 224 226 230 231 230 227 224 225 229 227 223 222 225 228 229 230 230 229 229
164 163 162 161 161 161 162 161 160 159 155 152 153 157 158 153 148 148 149 147 144 143 145 144 141 139 135 123 108 78 45 17 359 350 337 313 293 247 183 174 174 187 193 187 182 191 196 195 198 202 201 202 209 213 215 217 218 218 220 222 223 223 222 216 209 209 217 222 218 216 219 220 218 215 211 212 216 216 212 211 214 217 219 222 225 227 228
162 161 160 160 161 161 161 160 159 156 153 152 155 157 154 149 148 149 149 146 144 144 144 141 136 131 121 102 84 65 49 36 23 15 8 354 143 128 145 156 155 162 171 160 138 150 173 178 181 183 184 186 192 200 205 206 206 208 211 212 211 211 212 212 212 217 225 224 217 214 213 212 214 213 211 212 212 210 208 211 214 216 218 221 223 225 225
160 159 159 159 160 160 160 159 158 155 154 156 157 154 151 150 151 150 147 145 144 143 140 136 130 121 107 92 79 65 55 48 41 33 31 39 106 135 139 146 149 154 157 149 133 140 159 163 165 172 181 183 175 175 190 199 202 205 209 209 206 203 202 205 209 214 216 213 209 208 208 210 213 212 214 218 218 210 205 210 215 218 222 223 223 223 225
158 158 159 159 159 160 160 159 157 157 158 158 154 151 151 152 152 149 147 145 144 141 137 132 124 112 101 91 79 68 59 55 52 48 44 47 71 125 143 141 136 142 151 152 142 138 147 154 160 165 172 180 176 173 184 193 194 197 199 199 200 200 198 198 200 201 203 203 202 202 204 207 209 211 215 220 218 209 203 203 202 205 211 215 216 219 223
158 158 159 159 160 160 159 158 158 158 158 155 150 151 154 154 151 148 146 145 142 138 134 129 120 110 102 93 82 73 66 60 59 58 55 55 64 87 123 144 143 140 146 155 152 137 131 136 147 154 158 166 170 169 173 177 178 178 180 181 183 186 188 192 193 194 195 198 198 200 204 205 206 209 213 215 212 208 206 205 203 204 209 210 211 217 224
158 158 159 160 160 160 158 157 157 157 155 152 153 156 156 154 151 148 146 145 143 139 135 129 121 112 104 96 87 78 70 66 63 62 62 62 64 71 82 102 132 151 156 157 156 147 138 136 141 145 148 156 160 153 150 159 164 164 167 170 170 172 179 185 188 190 193 198 202 205 207 204 201 204 207 207 205 205 205 207 209 211 212 211 213 218 224
158 159 160 160 160 158 158 157 158 158 155 155 158 158 156 154 152 149 147 147 146 142 136 129 122 115 107 98 90 81 74 71 68 65 64 65 65 67 70 73 80 107 146 160 159 151 145 146 151 153 152 157 158 145 139 145 150 153 159 162 161 162 167 173 181 186 183 183 188 195 196 191 187 187 191 191 191 192 193 196 200 204 205 208 212 216 220
159 160 160 160 160 159 160 160 159 158 158 159 159 158 156 155 153 151 150 149 147 144 137 129 123 118 110 100 91 84 79 75 72 69 66 66 65 65 67 68 69 74 90 124 152 159 154 151 153 156 159 165 165 152 140 136 134 137 146 152 152 152 152 152 160 165 156 151 157 165 169 169 169 170 174 177 180 184 187 191 195 199 202 207 212 218 224
160 160 161 161 161 161 161 161 160 160 161 161 160 158 157 158 156 154 153 151 150 147 141 134 129 125 117 106 95 87 81 78 76 72 68 68 68 67 68 70 71 72 75 84 105 135 155 161 161 160 159 162 163 157 150 143 134 134 140 145 146 147 148 147 148 149 148 150 157 161 160 160 161 165 170 174 179 185 190 195 200 204 210 218 225 234 242
161 161 162 162 162 162 161 161 162 163 163 162 160 159 160 161 160 157 154 152 151 149 143 136 132 128 121 111 100 90 84 80 78 75 69 68 70 70 69 69 72 75 78 80 84 94 110 126 139 151 160 165 165 158 150 147 144 142 144 148 149 151 154 156 157 158 160 163 167 167 166 168 171 175 180 184 190 196 202 208 215 223 231 241 253 263 271
162 163 163 163 162 161 161 162 165 165 164 163 162 161 162 163 161 158 155 152 151 151 146 139 136 133 126 117 106 97 89 81 79 77 72 68 69 70 70 69 71 76 81 83 85 89 93 97 101 108 124 145 159 162 157 155 154 151 148 150 154 155 156 158 162 163 164 166 167 167 169 172 178 183 189 194 201 208 217 224 231 236 240 246 252 264 279
163 164 165 163 162 162 164 166 166 166 165 166 165 163 163 165 163 159 158 155 153 156 155 148 144 141 133 124 113 102 93 85 80 78 74 70 68 68 69 70 71 73 77 81 84 88 91 94 97 99 103 109 119 131 140 147 154 157 156 157 159 159 159 162 166 169 172 174 173 171 172 176 182 188 192 196 198 198 199 198 189 167 146 133 119 96 63
165 166 165 164 163 165 167 167 167 166 167 168 167 164 164 166 165 163 163 161 157 158 161 156 150 144 135 128 120 109 99 91 84 80 76 74 73 72 72 73 72 71 74 78 82 84 87 92 97 101 103 104 107 111 115 120 127 134 139 144 147 148 151 154 157 158 161 164 164 162 162 164 166 166 164 161 157 154 148 139 130 123 116 106 90 69 48
167 167 165 164 164 167 168 168 168 168 169 170 169 167 167 169 169 168 170 167 159 156 160 160 153 146 139 132 125 115 106 98 90 84 80 78 77 77 77 76 74 73 75 78 81 83 86 89 94 98 102 106 110 112 112 114 116 119 123 126 130 132 134 136 137 138 139 141 142 143 144 144 144 143 143 141 139 139 136 132 128 123 113 101 89 76 61
168 167 165 165 167 169 170 169 170 170 170 171 172 171 170 172 173 173 173 170 163 160 161 160 156 154 150 143 133 123 115 108 99 92 85 78 76 76 76 76 76 76 77 80 82 85 87 89 93 97 101 105 109 113 115 118 120 122 124 126 127 129 130 131 132 134 136 137 138 139 139 140 141 143 145 145 146 148 148 144 135 123 112 103 91 76 62
168 166 166 168 170 171 171 171 171 171 172 174 175 174 173 175 176 176 175 174 170 165 161 159 160 161 159 151 143 138 132 118 103 97 91 84 79 75 75 79 79 79 81 83 84 86 87 89 92 96 99 104 108 113 116 119 122 125 128 131 132 133 135 136 138 139 140 141 143 145 146 147 151 152 152 151 152 151 148 138 127 118 110 97 82 69 59
169 168 168 170 171 172 173 173 173 174 175 176 177 177 177 177 178 178 177 176 173 167 163 163 163 163 161 155 151 156 156 132 105 97 96 93 89 85 84 86 85 85 86 86 84 86 90 93 94 95 97 101 106 110 113 116 120 124 128 130 133 135 138 138 139 141 142 143 146 148 148 149 151 151 148 146 144 142 137 129 121 114 104 90 75 63 51
171 171 171 172 173 174 175 175 175 176 178 179 180 181 180 179 180 180 179 176 174 170 170 170 167 164 164 163 162 177 191 164 133 134 125 103 101 103 101 98 97 98 98 94 89 90 94 96 99 103 104 105 107 110 112 116 120 122 124 126 129 131 133 134 135 136 137 138 139 140 141 142 143 144 142 140 138 137 137 133 125 116 104 87 66 50 41
172 172 173 174 174 175 176 176 177 178 180 182 183 184 184 182 182 182 180 177 175 175 178 180 178 177 178 176 176 195 211 197 173 189 195 132 117 119 113 112 113 114 113 114 114 111 111 108 107 109 113 116 117 117 117 120 124 125 127 129 132 132 132 133 135 137 138 138 138 138 139 141 142 141 141 139 138 139 140 139 132 124 109 81 54 41 33
172 173 175 176 175 176 177 178 178 180 182 184 186 187 188 187 186 185 183 181 181 184 189 193 195 196 198 198 198 206 218 216 204 204 198 166 148 135 127 125 122 118 121 130 135 128 126 130 125 121 127 131 127 124 127 133 136 135 135 140 147 149 146 143 144 145 145 145 144 144 146 147 146 144 142 141 141 140 139 138 135 127 106 72 53 43 34
173 174 174 175 176 176 178 179 179 180 182 185 186 189 191 192 192 192 192 192 194 196 198 202 207 212 215 215 212 212 219 223 216 204 187 180 174 149 136 139 133 122 125 136 140 131 132 145 152 143 137 130 121 124 138 146 145 144 144 148 156 166 167 160 156 157 156 155 154 155 154 153 151 149 145 141 138 134 132 128 122 110 90 68 51 38 29
172 172 173 174 176 176 177 178 178 178 180 183 186 188 190 192 195 197 199 201 203 203 202 204 211 216 218 217 212 208 211 215 210 197 188 192 191 164 141 144 140 127 131 142 145 138 142 158 171 159 144 132 122 130 148 148 143 144 149 151 157 170 177 171 165 164 164 162 162 162 159 155 152 149 143 137 131 127 123 114 103 90 79 65 48 34 26
172 172 172 173 174 175 176 178 178 179 181 183 185 187 191 194 196 198 200 202 203 202 201 204 210 214 214 212 207 205 205 205 203 200 199 201 202 186 155 156 151 132 134 149 149 137 141 160 175 162 148 151 153 154 160 151 141 145 151 153 158 169 179 179 174 169 167 165 165 165 162 156 150 143 135 128 123 117 109 101 92 84 75 61 45 36 30
172 172 173 173 174 176 178 180 181 183 185 185 186 188 191 195 198 199 200 201 200 200 201 204 207 209 208 206 206 206 203 200 202 206 207 209 214 208 184 180 162 126 132 159 165 140 141 159 172 160 154 164 167 161 164 166 157 154 155 155 160 168 177 179 176 171 168 166 164 161 156 149 143 136 128 122 117 111 103 95 88 79 66 51 39 35 29
173 173 174 176 177 179 181 183 185 186 187 188 188 190 191 194 196 198 199 199 198 199 201 203 203 203 203 203 204 204 202 202 206 210 210 212 216 215 207 193 140 118 139 175 190 166 155 164 163 150 156 166 163 159 169 177 175 171 164 160 162 168 174 175 173 171 169 165 159 153 147 141 135 128 123 117 113 107 101 93 84 72 58 44 34 27 18
174 174 177 179 180 182 183 185 187 188 189 189 190 192 193 192 193 195 197 196 196 199 201 199 196 198 202 203 203 203 203 205 210 212 211 212 215 215 209 172 127 134 162 188 195 186 183 179 157 149 167 172 164 174 188 182 173 172 169 164 164 166 170 172 170 166 163 159 152 146 141 135 128 123 119 116 112 107 99 90 78 64 50 37 26 17 10
175 175 177 181 183 185 186 187 187 189 190 190 190 192 193 192 191 192 193 193 195 199 199 195 194 198 202 203 204 205 206 208 209 209 210 211 209 196 168 142 144 163 184 196 192 193 200 186 153 165 193 190 177 192 200 186 172 168 169 169 169 168 169 168 165 161 157 153 147 141 136 132 127 124 120 116 111 104 94 80 66 53 42 30 19 10 2
176 175 177 181 184 187 188 189 189 189 190 189 189 190 192 191 190 190 191 193 197 198 195 192 196 200 203 204 206 207 205 206 206 205 204 202 185 149 139 153 173 188 198 197 192 199 204 181 165 191 209 198 188 196 199 186 173 169 169 171 171 168 165 163 160 155 151 147 142 138 136 133 130 126 122 115 108 98 83 68 52 41 32 20 8 358 352